Flag for Liberia Weather past 2 weeks in Monrovia, Liberia

Now
77 °F

Sunny.


Feels Like: 78 °F
Forecast: 75 / 87 °F
Wind: 3 mph from Southwest

Location: Roberts Field

Current Time: Mar 1, 2015 at 8:09:02 PM

Latest Report: Mar 1, 2015 at 7:30 PM


Visibility: 4 mi

Pressure: 29.83 "Hg

Humidity: 89%

Dew point: 73 °F

Location of MonroviaLocation

Historic Weather in Monrovia — Graph

°F

Monrovia temperature yesterday

Maximum temperature yesterday: 90 °F (at 12:00 PM)
Minimum temperature yesterday: 73 °F (at 5:00 AM)
Average temperature yesterday: 78 °F

Past Weeks' High & Low Weather Summary

 TemperatureHumidityPressure
High91 °F (Feb 17, 1:30 PM)100% (Feb 19, 4:00 AM)29.98 "Hg (Feb 19, 4:00 AM)
Low72 °F (Feb 18, 6:00 AM)55% (Feb 18, 2:00 PM)29.74 "Hg (Feb 18, 3:30 PM)
Average80 °F83%29.85 "Hg
* Reported Feb 14 7:00 PM — Mar 1 7:00 PM, Monrovia, Weather by CustomWeather, © 2015

Note: Actual official high and low records may vary slightly from our data, if they occured in-between our weather recording intervals... More about our weather records

Advertising

Monrovia weather history for previous 24 hours

 ConditionsComfort  
Time TempWeatherWind HumidityBarometerVisibility
7:00 PM
Sun, Mar 1
81 °FClear.5 mph84%29.80 "Hg5 mi
5:30 PM86 °FSunny.5 mph66%29.77 "Hg5 mi
4:00 PM86 °FSunny.12 mph66%29.77 "Hg5 mi
3:30 PM88 °FSunny.9 mph66%29.80 "Hg5 mi
3:00 PM88 °FSunny.8 mph66%29.80 "Hg5 mi
2:30 PM90 °FSunny.12 mph63%29.80 "Hg5 mi
2:00 PM91 °FSunny.5 mph56%29.83 "Hg5 mi
1:30 PM91 °FSunny.3 mph56%29.83 "Hg5 mi
1:00 PM90 °FSunny.No wind55%29.86 "Hg5 mi
12:30 PM90 °FPassing clouds.5 mph59%29.86 "HgN/A
12:00 PM88 °FPassing clouds.No wind59%29.89 "HgN/A
11:30 AM86 °FPassing clouds.5 mph62%29.89 "HgN/A
11:00 AM84 °FPassing clouds.9 mph62%29.92 "HgN/A
10:30 AM82 °FPassing clouds.6 mph66%29.92 "HgN/A
10:00 AM81 °FPassing clouds.3 mph79%29.92 "HgN/A
9:30 AM79 °FPassing clouds.No wind79%29.95 "Hg6 mi
9:00 AM77 °FPassing clouds.No wind83%29.95 "Hg6 mi
8:30 AM75 °FPassing clouds.No wind94%29.92 "Hg5 mi
8:00 AM73 °FScattered clouds.No wind94%29.92 "Hg4 mi
7:30 AM73 °FPassing clouds.No wind94%29.92 "Hg4 mi
7:00 AM73 °FPassing clouds.No wind94%29.89 "Hg4 mi
6:30 AM73 °FPassing clouds.No wind94%29.89 "Hg4 mi
6:00 AM73 °FPassing clouds.No wind94%29.89 "Hg5 mi
5:30 AM73 °FPassing clouds.No wind94%29.86 "Hg5 mi
5:00 AM73 °FPassing clouds.No wind94%29.86 "Hg5 mi
4:30 AM73 °FPassing clouds.3 mph94%29.86 "Hg5 mi
4:00 AM73 °FPassing clouds.No wind94%29.86 "Hg5 mi
3:30 AM73 °FPassing clouds.No wind94%29.86 "Hg5 mi
3:00 AM75 °FPassing clouds.No wind94%29.86 "HgN/A
1:30 AM75 °FPassing clouds.No wind94%29.92 "HgN/A
12:00 AM75 °FPassing clouds.No wind94%29.92 "HgN/A
11:30 PM
Sat, Feb 28
75 °FPassing clouds.No wind94%29.92 "HgN/A
11:00 PM75 °FPassing clouds.No wind94%29.92 "HgN/A
10:30 PM75 °FPassing clouds.No wind94%29.95 "HgN/A
10:00 PM75 °FPassing clouds.No wind94%29.95 "HgN/A
9:30 PM75 °FPassing clouds.No wind94%29.92 "HgN/A
9:00 PM75 °FPassing clouds.No wind94%29.92 "HgN/A
8:30 PM75 °FPassing clouds.No wind94%29.89 "HgN/A
8:00 PM75 °FPassing clouds.No wind94%29.89 "HgN/A
Weather by CustomWeather, © 2015

See weather overviewHow to use our weather pages